Belize City, Belize

7:29 AM CST on December 04, 2016 (GMT -0600)
Philip S W Goldson International

Weather History for MZBZ - October, 2010

Change the Weather History Date:

Thursday, October 21, 2010

  Actual Average Record
Temperature  
Mean Temperature 80 °F -  
Max Temperature 87 °F 85 °F 89 °F (1998)
Min Temperature 72 °F 74 °F 68 °F (2011)
Cooling Degree Days 14    
Growing Degree Days 30 (Base 50)    
Moisture  
Dew Point 72 °F    
Average Humidity 73    
Maximum Humidity 100    
Minimum Humidity 44    
Precipitation  
Precipitation 0.00 in - - ()
Sea Level Pressure  
Sea Level Pressure 29.95 in    
Wind  
Wind Speed 6 mph ()    
Max Wind Speed 12 mph    
Max Gust Speed -    
Visibility 7.9 miles    
Events      
Averages and records for this station are not official NWS values.
T = Trace of Precipitation, MM = Missing Value Source: Averaged Metar Reports

Daily Weather History Graph

Daily Weather History Graph

Search for Another Location

Airport or City:

Trip Planner

Search our weather history database for the weather conditions in past years. The results will help you decide how hot, cold, wet, or windy it might be!

Date:

Astronomy

Oct. 21, 2010 Rise Set
Actual Time 5:48 AM CST 5:27 PM CST
Civil Twilight 5:26 AM CST 5:49 PM CST
Nautical Twilight 5:00 AM CST 6:14 PM CST
Astronomical Twilight 4:35 AM CST 6:40 PM CST
Moon 4:28 PM CST (10/21) 4:31 AM CST (10/21)
Length of Visible Light 12h 23m
Length of Day
11h 39m
Waxing Gibbous, 98% of the Moon is Illuminated
Oct 21
Waxing Gibbous
Oct 22
Full
Oct 30
Last Quarter
Nov 5
New
Nov 13
First Quarter

Hourly Weather History & Observations

Time (CST) Temp. Heat Index Dew Point Humidity Pressure Visibility Wind Dir Wind Speed Gust Speed Precip Events Conditions
12:00 AM 77.0 °F - 75.2 °F 94% 29.95 in 6.2 mi Calm Calm - N/A   Mostly Cloudy
3:00 AM 75 °F - 72 °F 88% 29.94 in 12 mi NNW 11.5 mph - -   Mostly Cloudy
3:00 AM 75.2 °F - 71.6 °F 89% 29.92 in 6.2 mi NNW 11.5 mph - N/A   Mostly Cloudy
6:00 AM 72 °F - 72 °F 100% 29.96 in 12 mi NNW 6.9 mph - -  
6:00 AM 73.4 °F - 69.8 °F 88% 29.95 in 6.2 mi NNW 6.9 mph - N/A   Partly Cloudy
7:00 AM 73.4 °F - 71.6 °F 94% 29.98 in 6.2 mi NNW 11.5 mph - N/A   Partly Cloudy
8:00 AM 77.0 °F - 71.6 °F 83% 29.98 in 6.2 mi North 11.5 mph - N/A   Mostly Cloudy
8:20 AM 77.0 °F - 71.6 °F 83% 30.00 in 6.2 mi NNW 5.8 mph - N/A   Mostly Cloudy
9:00 AM 81 °F - 72 °F 69% 30.01 in 12 mi NNW 5.8 mph - -   Partly Cloudy
9:00 AM 80.6 °F 85.4 °F 73.4 °F 79% 30.00 in 6.2 mi NNW 5.8 mph - N/A   Scattered Clouds
10:00 AM 84.2 °F 89.6 °F 71.6 °F 66% 30.00 in 6.2 mi WNW 5.8 mph - N/A   Partly Cloudy
11:00 AM 86.0 °F 90.4 °F 69.8 °F 58% 29.98 in 6.2 mi NNW 5.8 mph - N/A   Scattered Clouds
12:00 PM 86 °F - 72 °F 54% 29.96 in 12 mi East 5.8 mph - -  
12:00 PM 86.0 °F 91.8 °F 71.6 °F 62% 29.95 in 6.2 mi East 5.8 mph - N/A   Scattered Clouds
1:00 PM 87.8 °F 93.8 °F 71.6 °F 58% 29.92 in 6.2 mi ENE 8.1 mph - N/A   Scattered Clouds
2:00 PM 86.0 °F 91.8 °F 71.6 °F 62% 29.90 in 6.2 mi ENE 9.2 mph - N/A   Scattered Clouds
3:00 PM 87 °F - 68 °F 44% 29.89 in 12 mi ENE 9.2 mph - -   Partly Cloudy
3:00 PM 87.8 °F 91.4 °F 68.0 °F 52% 29.88 in 6.2 mi ENE 9.2 mph - N/A   Scattered Clouds
4:00 PM 86.0 °F 89.4 °F 68.0 °F 55% 29.89 in 6.2 mi East 5.8 mph - N/A   Partly Cloudy
5:00 PM 86.0 °F 93.4 °F 73.4 °F 66% 29.89 in 6.2 mi ENE 5.8 mph - N/A   Partly Cloudy
6:00 PM 81 °F - 73 °F 70% 29.92 in 12 mi North 3.5 mph - -  
6:00 PM 80.6 °F 85.4 °F 73.4 °F 79% 29.91 in 6.2 mi North 3.5 mph - N/A   Partly Cloudy
9:00 PM 76 °F - 72 °F 82% 29.98 in 12 mi Calm Calm - -  
9:00 PM 75.2 °F - 71.6 °F 89% 29.98 in 6.2 mi Calm Calm - N/A   Partly Cloudy